Temp
-7 -7 -6 -6 -6 -7 -7 -7 -7 -7 -7 -8 -8 -7 -7 -7 -7 -6 -6 -6 -6 -6 -6 -6 -6 -6 -6 -6 -7 -7 -7 -7 -7 -6 -7 -6 -6 -7 -7 -7 -7 -7 -7
-7 -7 -7 -7 -7 -7 -8 -8 -8 -8 -8 -8 -8 -8 -8 -8 -7 -7 -7 -6 -6 -6 -6 -6 -6 -6 -6 -7 -7 -7 -7 -7 -7 -6 -7 -6 -6 -7 -7 -7 -8 -8 -8
-7 -7 -7 -8 -7 -8 -8 -8 -8 -8 -8 -8 -8 -8 -8 -8 -8 -8 -7 -7 -7 -7 -6 -6 -6 -6 -7 -6 -6 -7 -7 -6 -7 -6 -7 -7 -7 -7 -8 -8 -8 -8 -8
-7 -7 -7 -7 -8 -8 -8 -8 -8 -8 -8 -8 -8 -8 -8 -8 -8 -8 -7 -7 -7 -7 -7 -7 -7 -6 -7 -7 -7 -6 -6 -6 -6 -6 -7 -7 -7 -7 -7 -8 -8 -8 -8
-8 -8 -8 -8 -8 -9 -8 -9 -8 -8 -8 -8 -8 -7 -8 -8 -8 -8 -8 -8 -7 -7 -7 -7 -7 -7 -7 -7 -7 -7 -7 -6 -6 -6 -7 -7 -7 -7 -6 -8 -8 -8 -8
-7 -7 -8 -7 -8 -8 -8 -8 -9 -9 -8 -7 -8 -8 -8 -8 -9 -8 -7 -7 -7 -7 -7 -7 -7 -6 -7 -7 -7 -8 -7 -7 -6 -6 -6 -7 -7 -7 -6 -7 -8 -8 -8
-7 -8 -8 -8 -8 -8 -9 -9 -9 -8 -8 -8 -9 -8 -8 -8 -8 -8 -8 -8 -8 -7 -7 -7 -7 -7 -7 -7 -7 -7 -7 -7 -7 -6 -6 -7 -7 -6 -6 -7 -8 -8 -8
-8 -8 -8 -8 -8 -8 -8 -8 -7 -7 -8 -8 -8 -8 -8 -8 -8 -9 -8 -8 -8 -7 -7 -7 -7 -7 -7 -7 -7 -7 -7 -7 -7 -6 -6 -7 -7 -6 -6 -6 -7 -8 -8
-8 -8 -8 -8 -8 -8 -8 -8 -8 -8 -8 -8 -8 -8 -9 -9 -9 -9 -8 -8 -8 -7 -7 -7 -7 -7 -7 -7 -6 -7 -7 -7 -7 -7 -7 -7 -7 -7 -6 -6 -7 -7 -8
-8 -8 -8 -8 -8 -8 -8 -8 -8 -8 -8 -9 -9 -10 -9 -9 -9 -9 -8 -8 -7 -8 -7 -7 -7 -7 -7 -7 -6 -7 -7 -7 -7 -7 -7 -7 -7 -7 -6 -6 -7 -7 -7
-8 -8 -8 -8 -8 -8 -8 -8 -9 -9 -9 -9 -9 -9 -9 -9 -9 -9 -8 -8 -7 -7 -7 -7 -7 -7 -7 -7 -6 -6 -7 -7 -7 -7 -7 -7 -7 -7 -7 -7 -6 -7 -7
-8 -8 -8 -9 -9 -9 -9 -9 -9 -9 -9 -9 -9 -9 -9 -9 -9 -8 -8 -8 -8 -7 -7 -7 -7 -7 -7 -7 -7 -7 -7 -7 -7 -7 -7 -7 -7 -8 -7 -7 -7 -8 -7
-9 -9 -9 -9 -9 -9 -9 -9 -9 -9 -9 -9 -9 -9 -9 -9 -9 -8 -8 -8 -8 -8 -8 -8 -8 -7 -8 -8 -7 -7 -7 -7 -7 -7 -7 -8 -8 -8 -8 -7 -7 -7 -7
-10 -10 -10 -9 -9 -9 -9 -9 -9 -9 -9 -9 -9 -9 -9 -9 -9 -9 -9 -9 -9 -9 -9 -9 -9 -8 -9 -8 -9 -8 -8 -8 -8 -8 -8 -8 -8 -8 -8 -7 -7 -7 -8
-10 -10 -10 -10 -9 -9 -9 -9 -9 -9 -9 -9 -9 -9 -9 -9 -9 -10 -10 -10 -10 -9 -10 -10 -9 -10 -9 -9 -9 -9 -9 -9 -9 -9 -9 -9 -9 -9 -9 -8 -7 -7 -8
-10 -10 -10 -10 -10 -10 -10 -10 -10 -10 -10 -10 -10 -10 -10 -10 -10 -10 -10 -10 -11 -11 -10 -10 -11 -11 -11 -11 -11 -10 -9 -9 -9 -10 -10 -9 -9 -9 -9 -9 -7 -8 -8
-11 -11 -11 -11 -11 -11 -11 -10 -10 -11 -11 -11 -11 -11 -10 -10 -10 -10 -11 -11 -11 -11 -11 -11 -11 -11 -12 -12 -12 -12 -10 -9 -9 -9 -10 -10 -10 -10 -10 -10 -8 -8 -8
-12 -12 -11 -11 -11 -11 -11 -11 -11 -11 -11 -12 -13 -12 -12 -11 -11 -11 -12 -12 -12 -12 -12 -12 -12 -12 -11 -12 -12 -13 -12 -11 -10 -9 -9 -10 -10 -10 -10 -10 -9 -8 -8
-12 -12 -12 -12 -12 -12 -12 -12 -12 -12 -12 -12 -12 -13 -13 -12 -12 -12 -12 -12 -12 -12 -12 -12 -12 -13 -13 -13 -13 -13 -13 -12 -12 -11 -10 -10 -10 -10 -10 -10 -10 -9 -9
-13 -13 -13 -13 -13 -13 -13 -13 -13 -12 -12 -12 -12 -12 -13 -13 -13 -13 -12 -12 -12 -12 -12 -13 -13 -13 -14 -15 -15 -14 -13 -13 -13 -12 -11 -10 -10 -10 -10 -10 -10 -9 -9
-14 -13 -13 -13 -13 -13 -13 -13 -13 -13 -12 -12 -12 -13 -13 -13 -13 -13 -13 -13 -13 -12 -13 -13 -14 -14 -15 -15 -15 -15 -14 -13 -13 -13 -12 -11 -11 -11 -11 -10 -11 -11 -10
-15 -15 -14 -14 -14 -14 -13 -13 -13 -13 -12 -12 -12 -13 -13 -13 -13 -13 -13 -13 -13 -13 -14 -14 -14 -15 -15 -16 -15 -14 -14 -13 -13 -13 -13 -12 -11 -11 -11 -11 -11 -11 -11
-15 -14 -14 -14 -14 -14 -14 -13 -13 -13 -13 -13 -12 -13 -13 -14 -14 -14 -14 -14 -14 -14 -14 -14 -14 -14 -15 -15 -15 -15 -14 -14 -14 -13 -13 -13 -12 -12 -12 -11 -10 -10 -11
-15 -15 -14 -14 -14 -14 -14 -13 -13 -13 -13 -13 -13 -13 -14 -14 -14 -14 -14 -14 -14 -14 -14 -14 -15 -15 -15 -15 -15 -15 -15 -15 -14 -13 -13 -13 -13 -12 -12 -12 -11 -10 -11
-15 -15 -15 -15 -14 -14 -14 -13 -13 -13 -13 -13 -13 -13 -14 -14 -14 -14 -14 -14 -14 -14 -15 -15 -15 -15 -15 -15 -15 -14 -14 -15 -14 -14 -13 -12 -13 -13 -13 -12 -12 -10 -11
-16 -16 -16 -15 -15 -14 -14 -14 -13 -13 -13 -13 -13 -13 -14 -14 -14 -14 -14 -14 -14 -14 -15 -15 -15 -15 -15 -16 -15 -14 -14 -14 -14 -14 -13 -13 -12 -12 -12 -11 -12 -11 -11
Height
5931 5932 5932 5933 5932 5932 5933 5933 5934 5936 5936 5935 5934 5934 5933 5932 5930 5929 5928 5926 5925 5923 5922 5920 5917 5914 5910 5903 5901 5897 5897 5897 5892 5887 5879 5873 5867 5862 5857 5850 5843 5835 5826
5930 5930 5930 5930 5930 5930 5930 5930 5931 5931 5932 5933 5933 5932 5931 5929 5928 5926 5924 5923 5922 5920 5917 5915 5913 5910 5906 5900 5896 5890 5888 5891 5888 5885 5874 5867 5863 5856 5853 5845 5839 5830 5821
5927 5928 5927 5927 5927 5926 5926 5926 5926 5926 5925 5924 5923 5924 5925 5925 5924 5923 5921 5919 5917 5915 5913 5910 5908 5905 5902 5897 5892 5889 5887 5885 5883 5878 5872 5864 5859 5853 5849 5841 5834 5827 5817
5923 5924 5926 5925 5925 5921 5921 5920 5919 5915 5916 5915 5914 5915 5917 5918 5919 5916 5914 5914 5913 5910 5908 5905 5902 5900 5896 5891 5887 5885 5882 5880 5876 5871 5870 5864 5857 5850 5845 5836 5830 5823 5813
5920 5919 5917 5918 5918 5916 5918 5919 5918 5913 5913 5903 5880 5891 5908 5910 5910 5903 5909 5907 5907 5904 5901 5899 5897 5894 5891 5887 5882 5880 5877 5872 5869 5867 5866 5860 5854 5848 5842 5835 5827 5821 5812
5910 5911 5909 5898 5909 5910 5910 5910 5907 5903 5900 5895 5895 5897 5899 5903 5901 5902 5902 5901 5899 5897 5895 5892 5889 5887 5884 5882 5877 5872 5872 5868 5864 5861 5859 5856 5850 5845 5839 5832 5825 5817 5809
5901 5901 5901 5898 5898 5889 5898 5900 5899 5898 5895 5896 5895 5895 5894 5893 5892 5893 5892 5890 5887 5886 5884 5882 5880 5878 5876 5875 5871 5867 5864 5863 5859 5854 5853 5851 5847 5841 5836 5830 5823 5815 5808
5894 5893 5892 5890 5888 5888 5889 5886 5886 5888 5887 5889 5886 5882 5882 5880 5880 5880 5878 5877 5875 5873 5872 5871 5868 5867 5865 5864 5862 5859 5856 5854 5851 5849 5846 5843 5842 5837 5832 5827 5821 5814 5807
5881 5881 5880 5878 5878 5877 5876 5876 5877 5876 5875 5873 5871 5869 5868 5870 5869 5868 5865 5864 5862 5862 5858 5856 5856 5853 5852 5851 5851 5850 5847 5845 5842 5841 5839 5837 5835 5832 5828 5824 5818 5813 5806
5868 5865 5864 5864 5864 5864 5864 5863 5860 5859 5860 5858 5858 5857 5856 5856 5854 5852 5850 5849 5847 5846 5844 5843 5840 5840 5840 5838 5837 5837 5837 5833 5832 5832 5830 5830 5828 5828 5825 5822 5817 5813 5806
5855 5854 5852 5850 5849 5848 5847 5847 5847 5846 5846 5846 5845 5844 5842 5839 5837 5836 5834 5832 5831 5831 5830 5829 5826 5826 5825 5823 5823 5823 5823 5821 5822 5822 5820 5821 5820 5821 5820 5818 5815 5813 5807
5843 5842 5840 5839 5839 5837 5835 5833 5831 5830 5830 5829 5827 5827 5825 5823 5820 5817 5816 5813 5812 5812 5811 5810 5810 5809 5808 5808 5808 5808 5808 5807 5809 5811 5811 5811 5811 5812 5813 5813 5811 5811 5808
5831 5829 5827 5826 5824 5822 5821 5819 5817 5814 5812 5811 5809 5808 5807 5804 5801 5799 5797 5795 5792 5791 5790 5790 5789 5789 5790 5789 5789 5791 5791 5792 5794 5798 5800 5799 5800 5802 5806 5806 5806 5806 5805
5817 5816 5815 5814 5812 5810 5808 5805 5802 5799 5796 5794 5793 5791 5789 5786 5782 5778 5775 5773 5771 5770 5769 5769 5769 5769 5770 5771 5772 5773 5774 5777 5777 5782 5786 5787 5788 5792 5796 5799 5799 5800 5801
5802 5801 5799 5798 5797 5795 5792 5790 5787 5783 5779 5777 5774 5772 5770 5768 5764 5760 5756 5753 5750 5749 5748 5747 5748 5748 5750 5750 5752 5755 5758 5760 5763 5767 5771 5773 5777 5780 5783 5790 5792 5793 5795
5788 5786 5785 5783 5781 5779 5776 5774 5771 5767 5764 5760 5755 5753 5751 5748 5745 5741 5738 5735 5732 5729 5728 5728 5728 5727 5728 5731 5732 5733 5739 5743 5748 5750 5756 5759 5764 5768 5772 5777 5782 5785 5787
5774 5772 5771 5769 5766 5764 5762 5759 5756 5753 5747 5744 5739 5736 5734 5731 5727 5724 5722 5719 5717 5714 5712 5710 5709 5706 5706 5708 5712 5715 5719 5723 5728 5734 5740 5746 5751 5755 5761 5766 5773 5776 5778
5759 5757 5756 5754 5751 5749 5746 5744 5741 5738 5735 5732 5726 5722 5718 5715 5712 5710 5707 5705 5702 5698 5696 5693 5692 5690 5688 5689 5693 5698 5700 5704 5709 5716 5723 5731 5737 5743 5749 5754 5761 5766 5769
5744 5742 5740 5738 5736 5734 5732 5729 5727 5724 5721 5717 5713 5706 5702 5700 5697 5694 5691 5690 5687 5684 5680 5677 5674 5672 5672 5671 5673 5680 5685 5687 5692 5699 5706 5714 5722 5730 5736 5741 5748 5754 5759
5729 5727 5725 5723 5722 5719 5718 5716 5713 5709 5705 5701 5698 5693 5688 5686 5683 5679 5677 5675 5672 5668 5664 5661 5658 5656 5655 5653 5655 5662 5669 5674 5678 5684 5691 5699 5708 5715 5723 5729 5736 5742 5748
5715 5713 5711 5709 5707 5705 5704 5701 5697 5694 5690 5686 5682 5678 5675 5673 5671 5667 5664 5660 5657 5654 5650 5646 5642 5639 5637 5638 5639 5643 5652 5659 5666 5672 5678 5684 5692 5700 5710 5715 5721 5727 5734
5703 5701 5699 5697 5694 5692 5689 5685 5682 5679 5675 5672 5668 5664 5660 5658 5656 5653 5650 5647 5643 5639 5635 5631 5627 5625 5624 5622 5622 5628 5636 5643 5650 5659 5664 5670 5677 5683 5690 5700 5708 5718 5724
5690 5687 5685 5683 5680 5678 5675 5672 5669 5665 5661 5658 5654 5650 5647 5644 5641 5639 5636 5633 5629 5626 5622 5617 5615 5615 5614 5613 5614 5619 5623 5632 5637 5645 5653 5657 5662 5670 5677 5684 5682 5696 5711
5677 5674 5672 5669 5667 5665 5662 5659 5655 5651 5648 5644 5640 5636 5633 5631 5628 5626 5623 5620 5617 5613 5608 5605 5604 5604 5604 5605 5607 5610 5616 5623 5626 5634 5642 5645 5649 5657 5663 5669 5671 5683 5696
5663 5660 5658 5656 5654 5651 5648 5645 5642 5638 5634 5630 5626 5623 5620 5619 5617 5614 5612 5608 5604 5600 5596 5593 5592 5593 5594 5596 5599 5602 5607 5611 5616 5623 5629 5635 5642 5648 5654 5663 5671 5672 5682
5648 5645 5643 5642 5640 5638 5636 5633 5630 5626 5621 5617 5614 5612 5610 5609 5606 5603 5600 5597 5593 5589 5586 5584 5581 5581 5582 5584 5587 5591 5594 5598 5605 5610 5614 5621 5628 5637 5646 5656 5660 5668 5673
Wind_Speed
2 1 2 3 3 4 5 6 7 6 4 3 1 2 4 6 8 11 12 13 13 14 15 16 17 20 26 30 30 29 21 28 35 31 36 39 37 29 32 37 41 41 34
8 9 9 10 9 9 11 12 12 11 9 7 5 5 5 7 9 10 11 14 17 18 20 21 22 24 25 28 31 33 37 27 23 32 35 37 40 33 33 37 41 42 35
12 14 14 15 16 18 17 17 18 19 18 16 13 12 10 10 11 11 14 17 20 21 24 26 27 28 28 31 33 33 33 32 33 31 33 38 38 36 33 37 41 43 36
17 19 18 17 22 23 24 26 27 27 26 23 22 18 14 17 16 17 17 20 22 23 25 28 29 31 31 33 35 35 34 34 34 33 31 36 37 38 38 36 40 42 39
22 22 26 25 26 28 26 27 30 31 30 38 29 13 15 21 23 23 22 24 28 30 32 32 32 33 32 33 36 36 34 35 35 35 33 34 37 36 40 34 38 40 37
29 30 36 31 27 31 35 34 36 39 39 39 27 22 29 27 29 33 37 36 31 32 35 36 37 36 36 34 35 38 37 36 37 37 37 32 35 35 38 37 34 39 38
37 37 39 41 45 39 40 42 33 35 43 52 31 30 30 33 34 36 40 41 39 39 39 38 39 41 41 39 39 39 40 38 38 39 38 36 33 36 35 38 31 35 37
42 44 45 47 49 47 45 46 41 37 36 32 34 36 36 38 42 46 45 46 43 42 46 44 43 44 45 43 42 43 42 42 38 37 37 39 32 33 33 35 29 31 33
44 44 45 47 48 46 46 46 44 42 41 42 43 41 43 47 50 50 50 51 51 50 50 50 50 48 48 46 43 43 45 44 43 39 35 36 33 32 32 29 28 27 29
48 49 50 51 51 49 48 48 47 47 46 47 48 50 52 53 56 57 57 55 54 55 55 55 56 54 52 51 48 47 46 48 46 42 38 33 33 31 30 25 26 21 25
48 49 50 51 51 51 51 49 49 49 49 49 51 53 55 57 58 59 59 58 57 57 57 57 57 55 53 53 52 51 50 48 44 42 41 34 34 30 29 24 22 16 18
46 47 48 48 48 50 52 53 54 54 55 55 56 56 56 58 59 59 60 62 62 61 60 59 57 57 57 57 57 57 55 53 46 40 39 36 34 32 27 24 20 14 11
46 48 49 50 52 53 53 53 53 53 54 54 55 55 56 58 59 60 61 62 62 62 62 62 60 60 57 56 55 55 53 51 50 42 39 38 36 34 30 25 19 15 9
50 50 52 53 53 53 53 53 54 56 57 58 58 59 60 60 60 62 63 63 61 61 60 59 59 58 56 54 53 52 51 49 48 44 39 39 36 35 33 27 22 17 12
52 52 53 53 52 52 53 55 56 58 60 61 62 63 63 62 61 60 60 58 59 58 56 56 55 54 54 54 53 51 50 50 47 43 39 37 36 37 37 30 26 21 18
51 52 52 53 54 54 55 54 55 57 57 58 60 61 59 58 59 58 55 53 52 53 54 54 55 55 54 51 49 52 49 50 49 46 40 41 37 38 39 34 30 25 23
52 52 51 51 51 51 53 54 55 52 53 54 54 55 55 53 51 50 47 45 41 41 42 42 43 50 54 55 49 49 49 50 51 49 46 42 38 39 38 35 32 29 27
50 50 49 49 50 50 51 50 50 48 46 45 47 49 49 47 47 44 45 40 45 47 49 49 50 49 48 51 54 47 47 49 52 51 49 44 42 39 39 37 33 33 31
47 48 48 48 48 48 48 45 44 44 46 46 46 47 45 45 45 44 43 46 47 48 48 50 50 48 46 49 51 52 48 46 47 50 51 48 46 41 40 42 38 37 34
47 47 47 47 47 43 40 42 43 44 45 44 45 46 44 42 40 40 41 44 44 45 47 47 46 43 41 43 42 48 47 45 42 44 46 49 48 46 42 38 38 36 37
44 43 41 40 39 40 41 44 44 43 42 43 44 45 45 43 42 41 42 42 42 43 44 43 43 43 39 38 39 43 47 45 39 37 43 44 50 48 43 44 41 38 38
37 37 38 38 40 41 41 40 40 40 41 42 44 43 44 46 47 47 44 41 40 42 41 42 40 39 40 36 36 45 50 47 44 39 37 40 47 53 50 53 49 46 46
38 38 39 39 37 36 38 40 41 42 43 44 45 43 43 43 45 44 42 40 40 38 39 38 35 30 27 28 31 41 42 51 45 43 41 44 46 49 60 64 57 46 42
43 43 41 40 40 41 41 43 43 43 43 44 43 43 41 40 40 40 38 38 40 39 36 34 30 29 28 22 26 38 41 46 42 45 46 45 45 43 52 45 42 40 43
46 45 44 43 42 42 41 42 43 42 42 42 41 40 35 33 33 34 37 37 38 33 31 30 31 31 30 28 28 27 40 42 40 48 48 47 45 46 45 54 50 40 43
45 44 42 42 43 42 41 40 39 38 40 39 37 33 29 29 30 31 31 33 29 28 28 29 33 33 31 28 27 30 34 35 39 41 42 45 47 46 46 45 44 44 49
Wind_Direction
218 257 279 261 228 203 187 182 176 177 170 143 106 21 353 341 339 337 337 337 338 334 329 327 323 324 324 322 323 316 339 342 337 339 338 350 355 345 347 345 345 347 344
258 255 254 249 230 220 210 203 205 215 222 230 260 271 293 304 314 324 323 324 327 327 325 323 322 320 321 317 324 330 332 332 348 344 340 346 349 345 339 342 347 349 345
276 270 269 253 247 242 235 229 229 232 232 236 235 244 257 271 278 294 302 310 312 314 313 313 314 316 317 317 320 326 333 340 335 339 341 337 343 347 336 335 347 347 348
285 291 287 271 255 256 243 241 238 238 237 240 238 246 258 266 269 280 293 295 298 299 296 300 304 307 311 312 314 317 322 326 331 336 337 332 339 343 340 337 344 348 349
277 272 270 271 264 262 256 257 258 252 247 246 241 228 264 273 272 289 293 292 292 295 296 296 296 297 298 301 304 307 311 317 321 325 332 330 333 337 339 340 339 348 349
274 273 284 265 260 266 267 261 252 247 252 258 281 282 281 291 287 290 290 292 286 286 285 287 290 292 292 294 296 302 305 308 310 313 318 328 325 333 335 341 339 346 351
280 281 280 277 282 289 294 287 267 296 282 259 270 278 285 286 289 291 289 290 294 286 289 289 287 287 288 292 297 296 299 301 304 307 310 315 320 326 332 336 339 347 351
274 276 278 280 285 290 290 296 297 293 292 287 282 284 287 293 291 292 292 290 284 282 288 290 289 290 289 289 289 293 295 298 299 301 305 306 313 318 326 330 337 347 351
277 278 278 281 283 285 287 289 290 290 290 291 291 291 291 287 285 286 286 285 285 284 287 290 290 289 289 290 289 289 291 293 293 294 297 300 303 309 317 326 333 346 351
281 282 282 282 283 285 287 288 291 291 290 290 289 286 284 284 284 285 285 284 285 286 286 287 287 287 288 287 287 286 285 285 287 288 288 290 292 298 306 316 327 340 345
278 279 280 281 283 285 287 287 287 287 285 284 282 281 280 281 281 282 282 283 283 282 283 282 282 283 283 283 283 284 284 283 283 284 282 282 281 285 294 305 316 325 337
276 276 277 279 280 282 284 287 288 287 286 285 285 284 283 283 283 285 286 286 285 284 282 281 280 280 278 279 280 279 278 278 278 278 278 275 273 276 279 288 300 303 327
279 280 282 284 284 285 285 286 286 286 287 287 287 287 287 287 287 286 285 284 284 284 284 283 282 280 280 279 277 276 275 273 273 271 270 270 268 267 268 270 279 283 291
277 279 280 280 282 283 285 287 288 289 289 289 289 289 288 288 288 288 287 287 286 285 284 283 282 281 279 276 274 271 271 270 270 267 263 263 263 261 259 257 262 266 256
279 280 281 283 284 286 287 288 288 288 289 288 288 288 287 287 287 286 286 286 286 284 283 282 279 277 274 271 267 265 264 264 264 263 259 254 254 256 256 250 254 252 242
281 282 283 284 286 287 286 285 286 286 287 288 288 288 288 288 287 287 287 285 284 284 284 281 277 274 269 268 264 261 256 256 255 256 252 250 248 251 254 252 242 243 238
281 282 282 282 281 282 282 284 286 288 289 289 290 291 290 289 288 286 284 282 281 287 287 286 286 279 271 261 255 255 251 248 247 246 247 245 243 245 248 246 238 241 237
280 280 280 281 283 285 286 286 287 288 285 285 288 290 288 285 284 282 280 270 282 284 288 291 292 281 278 269 253 248 249 243 241 239 239 239 237 237 241 243 233 234 235
281 283 284 284 284 285 286 285 283 284 287 287 288 291 286 287 288 284 274 275 283 286 288 290 290 284 281 275 260 242 246 243 238 236 233 233 233 235 236 238 235 229 234
282 282 282 282 283 282 279 281 286 289 288 285 287 289 284 287 289 285 282 284 287 290 290 291 290 287 284 274 260 241 238 242 240 235 232 228 229 229 232 235 229 229 231
283 284 283 282 282 283 284 288 291 292 290 289 289 288 283 279 280 287 289 289 290 290 291 290 290 285 280 264 254 239 236 235 238 234 231 227 224 223 222 233 224 214 215
280 282 283 283 286 288 291 292 291 292 292 288 286 288 285 280 280 282 286 288 290 293 292 289 283 290 275 252 248 229 231 228 232 231 230 227 225 221 222 228 231 229 223
284 284 285 284 285 290 292 291 290 290 290 291 293 290 286 288 286 284 285 285 290 292 297 288 277 280 262 268 247 225 224 230 226 229 235 234 231 217 218 227 227 203 213
284 284 284 284 285 286 288 293 292 289 290 292 293 292 289 287 285 284 283 288 292 297 292 281 273 272 266 268 259 241 237 240 232 228 231 237 239 233 231 234 227 215 214
284 284 284 283 283 285 286 288 290 292 294 295 295 292 287 284 287 286 286 289 294 293 287 277 269 269 262 259 253 239 230 238 227 230 231 233 232 233 236 231 232 209 202
283 282 281 281 281 284 287 286 287 293 294 296 293 290 282 287 289 290 289 296 294 297 290 277 271 264 259 258 255 243 231 228 229 232 233 235 235 232 228 218 226 220 214